Location: BGSU Observatory
(41.3799°N, 83.6397°W)
Time: 02:34:02
(UTC-04:00)

Amateur Radio Satellites - All Passes

Search period start: 25 April 2015 02:04
Search period end: 26 April 2015 02:04
Location: BGSU Observatory, 41.3799°N, 83.6397°W

Satellite Date Start Highest point End Downlink Frequencies (MHz)
Time Altitude Azimuth
RS-15 25 Apr 02:20:24 02:30:40 36° 252° (WSW) 02:40:58 29.354- 29.394
BUGSAT 1 25 Apr 02:30:34 02:31:47 11° 296° (WNW) 02:32:47 437.445
Cosmos 2504 25 Apr 02:32:57 02:40:45 52° 270° (W) 02:47:55 435.465 / 435.565
ITUPSAT 1 25 Apr 02:45:42 02:50:27 59° 259° (W) 02:55:12 437.325
STARS 25 Apr 02:47:52 02:50:45 18° 66° (ENE) 02:53:47 437.465
AIST 1 25 Apr 02:56:52 02:59:51 18° 290° (WNW) 03:02:41
Oscar 19 25 Apr 02:58:31 03:03:43 63° 101° (E) 03:08:52 437.125/150
BEESAT 3 25 Apr 03:15:11 03:18:40 28° 115° (ESE) 03:22:14 437.485
BEESAT 2 25 Apr 03:15:43 03:18:59 24° 114° (ESE) 03:22:22 435.950
BEESAT 25 Apr 03:17:56 03:22:04 28° 265° (W) 03:26:09 436.000
DANDE 25 Apr 03:20:12 03:22:20 12° 58° (ENE) 03:25:09 436.750
SWISSCUBE 25 Apr 03:20:34 03:24:30 24° 266° (W) 03:28:21 437.505
KKS-1 25 Apr 03:25:51 03:30:15 70° 75° (ENE) 03:34:41 437.445
ITAMSAT 1 25 Apr 03:31:29 03:36:18 39° 97° (E) 03:41:09 435.822/435.867
GONETS M04 25 Apr 03:44:04 03:51:54 35° 69° (ENE) 03:59:50
Gurwin Techsat 1B 25 Apr 03:56:10 04:01:25 59° 100° (E) 04:06:39 435.225
HORYU 2 25 Apr 04:03:38 04:05:24 12° 89° (E) 04:07:23 437.375
AIST 2 25 Apr 04:10:42 04:14:23 29° 115° (ESE) 04:18:09 435.215
AO-7 25 Apr 04:14:19 04:19:25 18° 88° (E) 04:24:59 29.400- 29.500
STARS 25 Apr 04:22:43 04:26:54 44° 261° (W) 04:31:08 437.465
CUSAT 1 25 Apr 04:25:53 04:32:55 43° 73° (ENE) 04:40:47 437.405
Oscar 19 25 Apr 04:39:10 04:42:36 17° 297° (WNW) 04:45:50 437.125/150
JAS-2 25 Apr 04:48:24 04:53:40 28° 90° (E) 04:58:34 435.910
BEESAT 3 25 Apr 04:53:02 04:56:38 29° 312° (NW) 05:00:15 437.485
BEESAT 2 25 Apr 04:53:11 04:56:57 33° 310° (NW) 05:00:45 435.950
DANDE 25 Apr 04:59:47 05:07:00 58° 76° (ENE) 05:15:23 436.750
Cosmos 2499 25 Apr 05:04:41 05:09:19 17° 59° (ENE) 05:14:08 435.465 / 435.565
KKS-1 25 Apr 05:06:21 05:07:29 11° 272° (W) 05:08:19 437.445
ITAMSAT 1 25 Apr 05:11:22 05:15:39 26° 294° (WNW) 05:19:52 435.822/435.867
M-CUBED/EXP-1 PRIME 25 Apr 05:12:27 05:14:13 12° 56° (NE) 05:16:14 437.505
MOZHAYETS 4 25 Apr 05:23:23 05:28:02 80° 76° (ENE) 05:32:42
Gurwin Techsat 1B 25 Apr 05:37:15 05:40:59 19° 297° (WNW) 05:44:33 435.225
HORYU 2 25 Apr 05:38:05 05:42:33 63° 286° (WNW) 05:46:58 437.375
GONETS M04 25 Apr 05:40:36 05:49:09 53° 270° (W) 05:57:33
AIST 2 25 Apr 05:49:10 05:52:57 30° 312° (NW) 05:56:44 435.215
AUBIESAT-1 25 Apr 05:53:08 05:57:00 26° 62° (ENE) 06:00:58 437.475
AO-7 25 Apr 06:05:03 06:13:25 90° 294° (WNW) 06:21:47 29.400- 29.500
CUSAT 1 25 Apr 06:08:36 06:15:44 44° 268° (W) 06:23:25 437.405
PRISM 25 Apr 06:14:56 06:16:53 13° 64° (ENE) 06:19:01 437.425
Cubesat XI-IV 25 Apr 06:28:31 06:28:58 10° 86° (E) 06:29:50 437.490
JAS-2 25 Apr 06:33:00 06:39:05 44° 292° (WNW) 06:44:27 435.910
DANDE 25 Apr 06:43:35 06:50:06 32° 270° (W) 06:57:10 436.750
M-CUBED/EXP-1 PRIME 25 Apr 06:43:36 06:48:24 87° 74° (ENE) 06:53:18 437.505
STRAND 1 25 Apr 06:48:22 06:52:35 27° 67° (ENE) 06:56:54 437.568
Cosmos 2499 25 Apr 06:56:02 07:03:56 89° 263° (W) 07:11:13 435.465 / 435.565
CUBESAT XI-V 25 Apr 06:58:01 07:02:35 62° 74° (ENE) 07:07:09 437.345
AUBIESAT-1 25 Apr 07:27:06 07:31:35 39° 258° (WSW) 07:36:05 437.475
PRISM 25 Apr 07:47:51 07:51:57 55° 259° (W) 07:56:03 437.425
CUTE-I 25 Apr 07:55:11 08:00:30 72° 102° (ESE) 08:05:49 437.470
AO-7 25 Apr 07:59:16 08:05:18 22° 307° (NW) 08:11:02 29.400- 29.500
PCSat 25 Apr 08:04:22 08:07:06 15° 105° (ESE) 08:10:07 145.827
Cubesat XI-IV 25 Apr 08:04:37 08:09:58 88° 98° (E) 08:15:18 437.490
M-CUBED/EXP-1 PRIME 25 Apr 08:22:40 08:23:56 11° 269° (W) 08:24:53 437.505
O/OREOS (USA 219) 25 Apr 08:24:32 08:28:21 27° 58° (ENE) 08:32:11 437.305
STRAND 1 25 Apr 08:26:58 08:31:41 36° 263° (W) 08:36:22 437.568
CUBESAT XI-V 25 Apr 08:38:16 08:40:32 13° 272° (W) 08:42:32 437.345
Cosmos 2499 25 Apr 08:51:45 08:55:54 15° 282° (WNW) 08:59:29 435.465 / 435.565
SEEDS 25 Apr 09:17:23 09:18:35 11° 88° (E) 09:20:02 437.485
Cosmos 2491 25 Apr 09:21:06 09:27:25 22° 62° (ENE) 09:34:05 435.465 / 435.565
CANX-2 25 Apr 09:23:24 09:26:20 18° 91° (E) 09:29:23 2200.000
CINEMA 3 25 Apr 09:32:07 09:33:35 11° 86° (E) 09:35:24 145.822/145.860
CUTE 1.7 + AOD 2 25 Apr 09:32:25 09:35:37 21° 92° (E) 09:38:54 437.475
AAUSAT CUBESAT 2 25 Apr 09:35:26 09:37:08 12° 89° (E) 09:39:03 437.432
CUTE-I 25 Apr 09:36:50 09:40:03 16° 298° (WNW) 09:43:04 437.470
GOMX 1 25 Apr 09:39:11 09:44:01 40° 97° (E) 09:49:06 467.674
PCSat 25 Apr 09:44:32 09:49:57 76° 302° (WNW) 09:55:25 145.827
Cubesat XI-IV 25 Apr 09:46:54 09:49:25 13° 300° (WNW) 09:51:40 437.490
BRITE-PL 25 Apr 09:48:38 09:53:43 74° 101° (E) 09:59:11 437.365/2234.400
O/OREOS (USA 219) 25 Apr 10:03:50 10:07:46 30° 255° (WSW) 10:11:37 437.305
ANTELSAT 25 Apr 10:15:54 10:18:57 18° 65° (ENE) 10:22:12 437.575/2403.000
HO-68 25 Apr 10:17:48 10:24:57 66° 103° (ESE) 10:32:05 435.675
DOVE 4 25 Apr 10:18:14 10:23:19 66° 100° (E) 10:28:35 437.250
COMPASS 1 25 Apr 10:25:58 10:30:07 56° 100° (E) 10:34:14 437.405
YUBILEINY 25 Apr 10:28:23 10:34:35 23° 81° (E) 10:41:10 435.215
QB50P1 25 Apr 10:31:06 10:32:28 12° 63° (ENE) 10:34:02 145.935-145.965
ZACube-1 25 Apr 10:37:18 10:40:20 18° 90° (E) 10:43:31 437.345
Oscar 11 25 Apr 10:37:19 10:41:07 29° 95° (E) 10:44:56 145.826/435.025
DELFI C3 25 Apr 10:48:04 10:51:32 28° 95° (E) 10:55:02 145.870
SEEDS 25 Apr 10:50:41 10:54:53 61° 285° (WNW) 10:59:03 437.485
QB50P2 25 Apr 10:55:00 10:58:11 21° 68° (ENE) 11:01:28 145.880/145.840
CANX-2 25 Apr 10:58:27 11:02:28 38° 288° (WNW) 11:06:23 2200.000
TIGRISAT 25 Apr 11:04:49 11:09:13 55° 73° (ENE) 11:13:45 435.000
CINEMA 3 25 Apr 11:06:27 11:11:27 81° 284° (WNW) 11:16:30 145.822/145.860
CUTE 1.7 + AOD 2 25 Apr 11:07:46 11:11:39 33° 289° (WNW) 11:15:27 437.475
UNISAT 6 25 Apr 11:08:49 11:13:17 63° 74° (ENE) 11:17:53 437.425
AAUSAT CUBESAT 2 25 Apr 11:09:04 11:13:11 53° 286° (WNW) 11:17:13 437.432
CUBEBUG 2 25 Apr 11:09:06 11:13:50 59° 99° (E) 11:18:33 437.445
DX 1 25 Apr 11:10:23 11:13:43 22° 94° (E) 11:17:10 434.975-435.025
NANOSAT C BR1 25 Apr 11:12:53 11:16:36 32° 70° (ENE) 11:20:23 145.865
POPSAT HIP 1 25 Apr 11:15:45 11:19:33 34° 71° (ENE) 11:23:25 437.405
Cosmos 2491 25 Apr 11:16:40 11:25:33 82° 263° (W) 11:34:22 435.465 / 435.565
GOMX 1 25 Apr 11:17:43 11:21:59 26° 291° (WNW) 11:26:18 467.674
BRITE-PL 25 Apr 11:28:53 11:31:49 15° 295° (WNW) 11:34:37 437.365/2234.400
PCSat 25 Apr 11:31:21 11:34:23 15° 322° (NW) 11:37:15 145.827
BEESAT 3 25 Apr 11:33:54 11:37:00 21° 44° (NE) 11:40:10 437.485
BEESAT 2 25 Apr 11:34:48 11:37:43 19° 43° (NE) 11:40:41 435.950
UWE-3 25 Apr 11:36:17 11:41:02 89° 274° (W) 11:45:43 435.000/436.395/437.385
ESTCUBE 1 25 Apr 11:36:43 11:37:16 10° 87° (E) 11:38:07 437.505/2401.250
50 SAT 25 Apr 11:36:54 11:39:54 20° 93° (E) 11:42:59 437.505
BUGSAT 1 25 Apr 11:42:53 11:46:43 46° 73° (ENE) 11:50:37 437.445
POLYITAN 1 25 Apr 11:44:49 11:49:02 76° 76° (ENE) 11:53:17 437.675
DUCHIFAT 1 25 Apr 11:46:27 11:50:37 76° 77° (ENE) 11:54:51 145.980
FUNcube-1 25 Apr 11:47:10 11:51:48 86° 285° (WNW) 11:56:22 145.935
ISS 25 Apr 11:49:43 11:50:47 11° 130° (SE) 11:51:58 145.825
ANTELSAT 25 Apr 11:51:02 11:55:24 46° 262° (W) 11:59:53 437.575/2403.000
UKube-1 25 Apr 11:53:29 11:57:47 61° 101° (E) 12:02:04 .
DOVE 4 25 Apr 11:57:21 12:00:39 17° 295° (WNW) 12:03:48 437.250
COMPASS 1 25 Apr 12:03:15 12:05:23 13° 295° (WNW) 12:07:20 437.405
QB50P1 25 Apr 12:03:39 12:07:51 67° 259° (WSW) 12:12:04 145.935-145.965
HO-68 25 Apr 12:06:26 12:12:12 26° 300° (WNW) 12:17:45 435.675
HUMSAT D 25 Apr 12:11:10 12:15:34 86° 102° (ESE) 12:19:52 437.325/437.525
ZACube-1 25 Apr 12:12:33 12:16:59 46° 288° (WNW) 12:21:21 437.345
Oscar 11 25 Apr 12:13:37 12:17:12 25° 292° (WNW) 12:20:42 145.826/435.025
VELOX 1 25 Apr 12:15:07 12:19:27 51° 100° (E) 12:23:47 145.980
YUBILEINY 25 Apr 12:21:46 12:30:37 75° 280° (W) 12:39:28 435.215
CUBEBUG 1 25 Apr 12:22:04 12:25:51 29° 95° (E) 12:29:43 437.445
DELFI C3 25 Apr 12:23:21 12:26:34 23° 291° (WNW) 12:29:42 145.870
QB50P2 25 Apr 12:30:05 12:33:55 33° 264° (W) 12:37:45 145.880/145.840
AIST 2 25 Apr 12:32:20 12:35:42 23° 45° (NE) 12:39:07 435.215
AISAT 25 Apr 12:32:44 12:37:14 84° 106° (ESE) 12:41:42 437.250
SO-50 25 Apr 12:33:52 12:38:27 63° 120° (ESE) 12:43:12 436.795
Oscar 19 25 Apr 12:39:58 12:41:52 12° 60° (ENE) 12:44:01 437.125/150
TIGRISAT 25 Apr 12:43:48 12:46:24 14° 271° (W) 12:48:50 435.000
DX 1 25 Apr 12:46:08 12:50:04 33° 290° (WNW) 12:53:58 434.975-435.025
CINEMA 3 25 Apr 12:46:51 12:47:57 10° 299° (WNW) 12:48:45 145.822/145.860
CUBEBUG 2 25 Apr 12:47:05 12:50:06 16° 295° (WNW) 12:52:55 437.445
UNISAT 6 25 Apr 12:48:28 12:50:37 13° 272° (W) 12:52:32 437.425
NANOSAT C BR1 25 Apr 12:49:15 12:52:32 21° 267° (W) 12:55:44 145.865
POPSAT HIP 1 25 Apr 12:52:25 12:55:34 20° 267° (W) 12:58:38 437.405
AIST 1 25 Apr 13:02:09 13:06:25 70° 264° (W) 13:10:39
ESTCUBE 1 25 Apr 13:10:17 13:14:46 73° 285° (WNW) 13:19:13 437.505/2401.250
50 SAT 25 Apr 13:11:11 13:14:47 30° 289° (WNW) 13:18:19 437.505
BEESAT 3 25 Apr 13:11:20 13:15:14 42° 243° (WSW) 13:19:02 437.485
BEESAT 2 25 Apr 13:12:08 13:16:09 51° 242° (WSW) 13:20:04 435.950
TISAT 1 25 Apr 13:15:22 13:18:44 23° 94° (E) 13:22:13 437.305
UWE-3 25 Apr 13:15:57 13:16:54 10° 298° (WNW) 13:17:34 435.000/436.395/437.385
Cosmos 2491 25 Apr 13:16:12 13:21:11 16° 282° (WNW) 13:25:35 435.465 / 435.565
Cosmos 2504 25 Apr 13:17:58 13:24:57 28° 84° (E) 13:32:10 435.465 / 435.565
BUGSAT 1 25 Apr 13:20:30 13:22:32 13° 270° (W) 13:24:23 437.445
ISS 25 Apr 13:23:30 13:26:45 80° 325° (NW) 13:30:01 145.825
UKube-1 25 Apr 13:31:20 13:33:28 13° 297° (WNW) 13:35:26 .
Gurwin Techsat 1B 25 Apr 13:41:09 13:43:19 13° 60° (ENE) 13:45:44 435.225
SPROUT 25 Apr 13:43:50 13:48:08 63° 101° (E) 13:52:26 437.525
VELOX 1 25 Apr 13:52:51 13:55:39 16° 295° (WNW) 13:58:16 145.980
CUBEBUG 1 25 Apr 13:58:32 14:02:09 25° 291° (WNW) 14:05:42 437.445
AIST 2 25 Apr 14:10:29 14:14:28 40° 244° (WSW) 14:18:21 435.215
AISAT 25 Apr 14:12:17 14:13:14 10° 298° (WNW) 14:13:56 437.250
Oscar 19 25 Apr 14:15:22 14:20:33 90° 311° (NW) 14:25:46 437.125/150
SO-50 25 Apr 14:15:53 14:19:28 20° 319° (NW) 14:23:02 436.795
YUBILEINY 25 Apr 14:24:13 14:29:21 16° 303° (WNW) 14:33:57 435.215
RS-15 25 Apr 14:31:52 14:41:33 41° 109° (ESE) 14:51:35 29.354- 29.394
ITUPSAT 1 25 Apr 14:46:28 14:50:48 35° 97° (E) 14:55:09 437.325
ITAMSAT 1 25 Apr 14:49:26 14:54:31 60° 73° (ENE) 14:59:38 435.822/435.867
TISAT 1 25 Apr 14:50:49 14:54:34 30° 290° (WNW) 14:58:15 437.305
JAS-2 25 Apr 15:00:38 15:05:26 19° 58° (ENE) 15:10:27 435.910
ISS 25 Apr 15:01:06 15:03:32 19° 344° (NNW) 15:05:57 145.825
HORYU 2 25 Apr 15:02:31 15:04:28 13° 63° (ENE) 15:06:37 437.375
Cosmos 2504 25 Apr 15:09:00 15:17:50 66° 281° (WNW) 15:26:35 435.465 / 435.565
AO-7 25 Apr 15:13:20 15:19:57 29° 57° (ENE) 15:26:47 29.400- 29.500
BEESAT 25 Apr 15:17:12 15:21:59 74° 102° (ESE) 15:26:44 436.000
Gurwin Techsat 1B 25 Apr 15:17:17 15:22:37 89° 255° (WSW) 15:27:59 435.225
KKS-1 25 Apr 15:18:35 15:20:45 14° 89° (E) 15:23:08 437.445
SWISSCUBE 25 Apr 15:19:41 15:24:28 85° 105° (ESE) 15:29:14 437.505
SPROUT 25 Apr 15:21:45 15:23:46 13° 296° (WNW) 15:25:34 437.525
Oscar 19 25 Apr 16:00:10 16:00:45 10° 274° (W) 16:00:58 437.125/150
STARS 25 Apr 16:12:24 16:16:24 32° 96° (E) 16:20:26 437.465
ITUPSAT 1 25 Apr 16:24:38 16:28:34 25° 293° (WNW) 16:32:24 437.325
ITAMSAT 1 25 Apr 16:31:11 16:34:31 16° 270° (W) 16:37:37 435.822/435.867
HORYU 2 25 Apr 16:36:09 16:40:37 68° 258° (WSW) 16:45:07 437.375
ISS 25 Apr 16:39:01 16:40:50 14° 4° (N) 16:42:38 145.825
JAS-2 25 Apr 16:41:41 16:49:34 82° 75° (ENE) 16:57:14 435.910
RS-15 25 Apr 16:42:50 16:53:34 59° 312° (NW) 17:04:35 29.354- 29.394
GONETS M04 25 Apr 16:45:20 16:53:07 39° 87° (E) 17:01:08
PCSat 25 Apr 16:50:18 16:53:34 16° 40° (NE) 16:56:58 145.827
KKS-1 25 Apr 16:53:24 16:57:49 57° 287° (WNW) 17:02:13 437.445
BEESAT 25 Apr 16:57:01 16:59:17 13° 298° (WNW) 17:01:21 436.000
SWISSCUBE 25 Apr 17:00:04 17:01:43 11° 299° (WNW) 17:03:06 437.505
Gurwin Techsat 1B 25 Apr 17:02:21 17:03:29 10° 275° (W) 17:04:12 435.225
AO-7 25 Apr 17:03:57 17:12:12 70° 256° (WSW) 17:20:29 29.400- 29.500
Cosmos 2504 25 Apr 17:08:56 17:13:22 14° 305° (NW) 17:17:08 435.465 / 435.565
MOZHAYETS 4 25 Apr 17:19:32 17:22:43 19° 91° (E) 17:26:01
CUSAT 1 25 Apr 17:36:21 17:39:20 25° 87° (E) 17:43:08 437.405
CUTE-I 25 Apr 17:39:54 17:42:59 16° 62° (ENE) 17:46:17 437.470
Cosmos 2499 25 Apr 17:43:03 17:47:06 15° 78° (ENE) 17:51:43 435.465 / 435.565
Cubesat XI-IV 25 Apr 17:48:48 17:52:28 20° 63° (ENE) 17:56:18 437.490
VERMONT LUNAR 25 Apr 17:49:04 17:52:09 33° 158° (SSE) 17:55:15 437.305
STARS 25 Apr 17:49:07 17:52:44 24° 292° (WNW) 17:56:15 437.465
DANDE 25 Apr 18:14:24 18:17:34 47° 93° (E) 18:21:44 436.750
ISS 25 Apr 18:15:08 18:18:00 27° 23° (NNE) 18:20:52 145.825
PHONESAT 2.4 25 Apr 18:16:02 18:18:53 23° 153° (SSE) 18:21:48 2401.200-2431.200
JAS-2 25 Apr 18:29:37 18:35:23 21° 273° (W) 18:40:44 435.910
PCSat 25 Apr 18:32:24 18:37:52 86° 60° (ENE) 18:43:17 145.827
GONETS M04 25 Apr 18:41:30 18:49:53 47° 287° (WNW) 18:58:17
MOZHAYETS 4 25 Apr 18:55:50 19:00:11 42° 288° (WNW) 19:04:28
CUBESAT XI-V 25 Apr 18:55:59 18:58:37 15° 89° (E) 19:01:27 437.345
RS-15 25 Apr 19:00:27 19:09:05 24° 342° (NNW) 19:17:46 29.354- 29.394
AO-7 25 Apr 19:03:37 19:06:45 12° 276° (W) 19:09:07 29.400- 29.500
AUBIESAT-1 25 Apr 19:10:00 19:12:15 15° 94° (E) 19:14:34 437.475
CUTE-I 25 Apr 19:17:14 19:22:33 70° 258° (WSW) 19:27:53 437.470
CUSAT 1 25 Apr 19:19:06 19:22:08 21° 296° (WNW) 19:25:46 437.405
VERMONT LUNAR 25 Apr 19:26:03 19:29:26 75° 173° (S) 19:32:49 437.305
SO-50 25 Apr 19:26:37 19:28:30 12° 32° (NNE) 19:30:33 436.795
Cubesat XI-IV 25 Apr 19:26:57 19:32:12 57° 260° (W) 19:37:27 437.490
Cosmos 2499 25 Apr 19:30:15 19:39:06 76° 96° (E) 19:47:46 435.465 / 435.565
PRISM 25 Apr 19:31:02 19:33:57 19° 93° (E) 19:36:57 437.425
ISS 25 Apr 19:51:20 19:54:27 43° 221° (SW) 19:57:33 145.825
PHONESAT 2.4 25 Apr 19:53:16 19:56:49 63° 169° (SSE) 20:00:23 2401.200-2431.200
DANDE 25 Apr 20:00:43 20:01:44 11° 304° (WNW) 20:02:35 436.750
M-CUBED/EXP-1 PRIME 25 Apr 20:00:48 20:05:02 69° 106° (ESE) 20:08:52 437.505
CANX-2 25 Apr 20:17:19 20:19:38 15° 65° (ENE) 20:22:08 2200.000
PCSat 25 Apr 20:18:20 20:20:37 12° 256° (WSW) 20:22:35 145.827
CUTE 1.7 + AOD 2 25 Apr 20:26:06 20:28:45 17° 66° (ENE) 20:31:33 437.475
CUBESAT XI-V 25 Apr 20:31:58 20:36:27 52° 287° (WNW) 20:40:55 437.345
STRAND 1 25 Apr 20:36:49 20:41:56 75° 103° (ESE) 20:47:02 437.568
YUBILEINY 25 Apr 20:40:22 20:41:09 10° 51° (NE) 20:42:41 435.215
AUBIESAT-1 25 Apr 20:43:27 20:47:26 43° 294° (WNW) 20:51:05 437.475
HO-68 25 Apr 20:46:09 20:52:59 50° 67° (ENE) 20:59:53 435.675
GOMX 1 25 Apr 20:48:18 20:52:08 37° 71° (ENE) 20:56:12 467.674
BRITE-PL 25 Apr 21:00:29 21:04:37 81° 76° (ENE) 21:08:55 437.365/2234.400
VERMONT LUNAR 25 Apr 21:03:29 21:06:51 62° 191° (SSW) 21:10:11 437.305
SO-50 25 Apr 21:05:15 21:10:10 58° 53° (NE) 21:15:01 436.795
PRISM 25 Apr 21:05:49 21:09:32 33° 289° (WNW) 21:13:12 437.425
COMPASS 1 25 Apr 21:17:15 21:21:10 38° 72° (ENE) 21:25:09 437.405
RS-15 25 Apr 21:18:07 21:26:42 24° 17° (NNE) 21:35:46 29.354- 29.394
DOVE 4 25 Apr 21:24:26 21:28:36 61° 74° (ENE) 21:33:01 437.250
Cosmos 2499 25 Apr 21:26:10 21:33:13 25° 296° (WNW) 21:39:50 435.465 / 435.565
PHONESAT 2.4 25 Apr 21:31:25 21:35:00 75° 186° (S) 21:38:35 2401.200-2431.200
Oscar 11 25 Apr 21:32:28 21:35:55 24° 69° (ENE) 21:39:29 145.826/435.025
ZACube-1 25 Apr 21:34:22 21:36:39 15° 64° (ENE) 21:39:10 437.345
DELFI C3 25 Apr 21:36:19 21:39:09 19° 68° (ENE) 21:42:06 145.870
M-CUBED/EXP-1 PRIME 25 Apr 21:37:33 21:39:18 12° 304° (NW) 21:40:47 437.505
SEEDS 25 Apr 21:42:23 21:46:39 88° 252° (WSW) 21:50:59 437.485
CANX-2 25 Apr 21:50:59 21:55:11 53° 261° (W) 21:59:26 2200.000
AAUSAT CUBESAT 2 25 Apr 21:59:30 22:03:44 81° 258° (WSW) 22:07:59 437.432
CUTE 1.7 + AOD 2 25 Apr 22:00:12 22:04:21 46° 262° (W) 22:08:31 437.475
DX 1 25 Apr 22:06:31 22:09:39 20° 66° (ENE) 22:12:52 434.975-435.025
CUBEBUG 2 25 Apr 22:07:28 22:11:39 47° 73° (ENE) 22:16:01 437.445
CINEMA 3 25 Apr 22:08:22 22:12:42 88° 259° (WSW) 22:17:16 145.822/145.860
STRAND 1 25 Apr 22:17:49 22:20:35 14° 299° (WNW) 22:23:08 437.568
50 SAT 25 Apr 22:23:36 22:25:27 13° 65° (ENE) 22:27:30 437.505
Cosmos 2491 25 Apr 22:23:41 22:29:59 24° 82° (E) 22:36:40 435.465 / 435.565
GOMX 1 25 Apr 22:27:34 22:30:32 18° 270° (W) 22:33:29 467.674
YUBILEINY 25 Apr 22:32:04 22:40:38 56° 76° (ENE) 22:49:09 435.215
UWE-3 25 Apr 22:33:21 22:37:41 75° 75° (ENE) 22:42:11 435.000/436.395/437.385
HO-68 25 Apr 22:34:35 22:40:57 32° 265° (W) 22:47:14 435.675
ESTCUBE 1 25 Apr 22:36:45 22:37:57 11° 62° (ENE) 22:39:24 437.505/2401.250
O/OREOS (USA 219) 25 Apr 22:36:49 22:40:45 30° 105° (ESE) 22:44:46 437.305
VERMONT LUNAR 25 Apr 22:41:21 22:43:59 21° 207° (SSW) 22:46:36 437.305
FUNcube-1 25 Apr 22:42:46 22:47:05 74° 77° (ENE) 22:51:33 145.935
SO-50 25 Apr 22:46:54 22:50:19 18° 250° (WSW) 22:53:33 436.795
UKube-1 25 Apr 22:48:19 22:52:30 52° 73° (ENE) 22:56:43 .
COMPASS 1 25 Apr 22:54:04 22:57:03 18° 269° (W) 22:59:55 437.405
TIGRISAT 25 Apr 22:58:38 23:00:23 12° 87° (E) 23:02:23 435.000
UNISAT 6 25 Apr 23:02:28 23:04:49 14° 88° (E) 23:07:23 437.425
HUMSAT D 25 Apr 23:02:51 23:06:59 60° 75° (ENE) 23:11:14 437.325/437.525
DOVE 4 25 Apr 23:05:30 23:07:00 11° 274° (W) 23:08:16 437.250
Oscar 11 25 Apr 23:08:07 23:12:00 30° 264° (W) 23:15:52 145.826/435.025
ZACube-1 25 Apr 23:08:18 23:12:34 57° 261° (W) 23:16:58 437.345
PHONESAT 2.4 25 Apr 23:09:45 23:13:02 34° 202° (SSW) 23:16:18 2401.200-2431.200
DELFI C3 25 Apr 23:10:18 23:14:05 35° 263° (W) 23:17:51 145.870
VELOX 1 25 Apr 23:12:49 23:16:59 46° 72° (ENE) 23:21:14 145.980
CUBEBUG 1 25 Apr 23:18:39 23:22:10 25° 69° (ENE) 23:25:45 437.445
AISAT 25 Apr 23:30:32 23:34:54 75° 75° (ENE) 23:39:19 437.250
RS-15 25 Apr 23:31:14 23:42:28 56° 47° (NE) 23:54:14 29.354- 29.394
POLYITAN 1 25 Apr 23:32:07 23:33:56 13° 89° (E) 23:35:59 437.675
DUCHIFAT 1 25 Apr 23:33:09 23:34:48 12° 89° (E) 23:36:42 145.980
DX 1 25 Apr 23:41:39 23:45:40 37° 262° (W) 23:49:42 434.975-435.025
ANTELSAT 25 Apr 23:43:01 23:47:22 37° 96° (E) 23:51:42 437.575/2403.000
CUBEBUG 2 25 Apr 23:45:57 23:48:43 16° 271° (W) 23:51:21 437.445
QB50P1 25 Apr 23:49:31 23:52:38 20° 93° (E) 23:55:50 145.935-145.965
50 SAT 25 Apr 23:55:58 23:59:52 51° 261° (W) 00:03:50 437.505
TISAT 1 26 Apr 00:08:20 00:11:11 18° 67° (ENE) 00:14:09 437.305
ESTCUBE 1 26 Apr 00:09:45 00:14:16 79° 258° (WSW) 00:18:47 437.505/2401.250
QB50P2 26 Apr 00:15:00 00:19:01 38° 97° (E) 00:23:03 145.880/145.840
O/OREOS (USA 219) 26 Apr 00:16:13 00:20:11 28° 302° (WNW) 00:24:06 437.305
Cosmos 2491 26 Apr 00:17:23 00:26:06 72° 281° (W) 00:34:53 435.465 / 435.565
UKube-1 26 Apr 00:26:42 00:29:01 14° 270° (W) 00:31:08 .
YUBILEINY 26 Apr 00:29:35 00:37:04 32° 275° (W) 00:44:18 435.215
NANOSAT C BR1 26 Apr 00:32:54 00:37:09 59° 101° (E) 00:41:23 145.865
TIGRISAT 26 Apr 00:33:00 00:37:43 69° 285° (WNW) 00:42:19 435.000
POPSAT HIP 1 26 Apr 00:36:08 00:40:25 65° 101° (E) 00:44:41 437.405
UNISAT 6 26 Apr 00:37:24 00:42:05 60° 286° (WNW) 00:46:40 437.425
SPROUT 26 Apr 00:38:01 00:42:06 48° 73° (ENE) 00:46:16 437.525
HUMSAT D 26 Apr 00:41:39 00:43:15 12° 272° (W) 00:44:38 437.325/437.525
BEESAT 26 Apr 00:50:54 00:51:14 10° 60° (ENE) 00:51:51 436.000
VELOX 1 26 Apr 00:51:03 00:53:52 16° 269° (W) 00:56:31 145.980
SWISSCUBE 26 Apr 00:52:11 00:53:43 12° 61° (ENE) 00:55:30 437.505
CUBEBUG 1 26 Apr 00:54:41 00:58:27 28° 264° (W) 01:02:12 437.445
BUGSAT 1 26 Apr 01:00:00 01:04:10 84° 102° (ESE) 01:08:22 437.445
Cosmos 2504 26 Apr 01:02:44 01:10:28 48° 74° (ENE) 01:17:42 435.465 / 435.565
POLYITAN 1 26 Apr 01:06:01 01:10:17 56° 286° (WNW) 01:14:31 437.675
DUCHIFAT 1 26 Apr 01:06:51 01:11:04 57° 286° (WNW) 01:15:16 145.980
ANTELSAT 26 Apr 01:20:12 01:23:58 24° 293° (WNW) 01:27:36 437.575/2403.000
QB50P1 26 Apr 01:24:41 01:28:38 36° 289° (WNW) 01:32:33 145.935-145.965
AIST 1 26 Apr 01:31:24 01:35:40 68° 96° (E) 01:39:57
TISAT 1 26 Apr 01:42:48 01:46:43 38° 262° (W) 01:50:39 437.305
QB50P2 26 Apr 01:51:33 01:54:41 19° 293° (WNW) 01:57:42 145.880/145.840
ITUPSAT 1 26 Apr 01:53:18 01:57:45 41° 71° (ENE) 02:02:17 437.325
